Location: Poughquag
(41.6090°N, 73.6820°W)
Time: 04:53:30
(UTC-04:00)

NOAA 18 - Visible Passes

Search period start: 12 September 2024 00:00
Search period end: 22 September 2024 00:00
Orbit: 837 x 858 km, 98.9° (Epoch: 12 September)

Date Brightness Start Highest point End Pass type
(mag) Time Alt. Az. Time Alt. Az. Time Alt. Az.
12 Sep 7.1 21:52:25 18° NE 21:52:25 18° NE 21:54:37 10° NNE visible
12 Sep 7.4 23:34:23 21° NNW 23:34:23 21° NNW 23:36:11 10° NNW visible
13 Sep 7.2 21:39:45 15° NE 21:39:45 15° NE 21:41:32 10° NNE visible
13 Sep 7.3 23:21:43 22° NNW 23:21:43 22° NNW 23:23:38 10° NNW visible
14 Sep 7.4 21:27:06 12° NE 21:27:06 12° NE 21:28:14 10° NNE visible
14 Sep 7.2 23:09:03 23° NNW 23:09:03 23° NNW 23:11:02 10° NNW visible
15 Sep 7.2 22:56:24 23° N 22:56:24 23° N 22:58:22 10° N visible
16 Sep 7.2 22:43:43 22° N 22:43:43 22° N 22:45:40 10° N visible
17 Sep 7.2 22:31:03 21° N 22:31:03 21° N 22:32:55 10° N visible
18 Sep 8.1 00:13:00 10° NW 00:13:00 10° NW 00:13:04 10° NW visible
18 Sep 7.2 22:18:22 19° NNE 22:18:22 19° NNE 22:20:06 10° N visible
19 Sep 8.0 00:00:20 12° NW 00:00:20 12° NW 00:00:44 10° NNW visible
19 Sep 7.3 22:05:42 17° NNE 22:05:42 17° NNE 22:07:12 10° N visible
19 Sep 7.9 23:47:40 13° NNW 23:47:40 13° NNW 23:48:19 10° NNW visible
20 Sep 7.4 21:53:02 15° NNE 21:53:02 15° NNE 21:54:13 10° NNE visible
20 Sep 7.8 23:34:59 15° NNW 23:34:59 15° NNW 23:35:49 10° NNW visible
21 Sep 7.5 21:40:21 12° NNE 21:40:21 12° NNE 21:41:07 10° NNE visible
21 Sep 7.8 23:22:19 15° NNW 23:22:19 15° NNW 23:23:15 10° NNW visible
